Weather History for KIRK - December, 2012

Change the Weather History Date:

Thursday, December 6, 2012

  Actual Average Record
Temperature  
Mean Temperature 43 °F 31 °F  
Max Temperature 51 °F 40 °F - ()
Min Temperature 35 °F 23 °F - ()
Degree Days  
Heating Degree Days 22 34  
Month to date heating degree days 103 197  
Since 1 July heating degree days 1373 1418  
Cooling Degree Days 0 0  
Month to date cooling degree days 0 0  
Year to date cooling degree days 1321 939  
Moisture  
Dew Point 38 °F    
Average Humidity 76    
Maximum Humidity 92    
Minimum Humidity 59    
Precipitation  
Precipitation 0.02 in 0.07 in - ()
Month to date precipitation 0.03 0.40  
Year to date precipitation 26.45 37.96  
Sea Level Pressure  
Sea Level Pressure 29.99 in    
Wind  
Wind Speed 6 mph (SSE)    
Max Wind Speed 15 mph    
Max Gust Speed 18 mph    
Visibility 10 miles    
Events Rain    
T = Trace of Precipitation, MM = Missing Value Source: NWS Daily Summary

Daily Weather History Graph

Daily Weather History Graph

Search for Another Location

Airport or City:

Trip Planner

Search our weather history database for the weather conditions in past years. The results will help you decide how hot, cold, wet, or windy it might be!

Date:

Astronomy

Dec. 06, 2012 Rise Set
Actual Time 7:18 AM CST 4:44 PM CST
Civil Twilight 6:48 AM CST 5:14 PM CST
Nautical Twilight 6:14 AM CST 5:48 PM CST
Astronomical Twilight 5:41 AM CST 6:21 PM CST
Moon No Moon Rise 12:11 PM CST (12/6)
Length of Visible Light 10h 26m
Length of Day
9h 26m
Waning Gibbous, 49% of the Moon is Illuminated
Dec 6
Waning Gibbous
Dec 13
New
Dec 19
First Quarter
Dec 28
Full
Jan 4
Last Quarter

Hourly Weather History & Observations

Time (CST) Temp. Windchill Dew Point Humidity Pressure Visibility Wind Dir Wind Speed Gust Speed Precip Events Conditions
12:55 AM 39.0 °F 33.4 °F 35.1 °F 86% 30.09 in 10.0 mi South 8.1 mph - N/A   Clear
1:55 AM 39.9 °F 33.4 °F 35.1 °F 83% 30.07 in 10.0 mi SSE 10.4 mph - N/A   Clear
2:55 AM 37.9 °F 32.1 °F 34.0 °F 86% 30.07 in 10.0 mi SSE 8.1 mph - N/A   Clear
3:55 AM 37.9 °F 32.7 °F 34.0 °F 86% 30.06 in 10.0 mi SSE 6.9 mph - N/A   Clear
4:55 AM 35.1 °F 29.3 °F 33.1 °F 92% 30.05 in 10.0 mi SSE 6.9 mph - N/A   Clear
5:55 AM 36.0 °F 31.1 °F 33.1 °F 89% 30.05 in 10.0 mi SSE 5.8 mph - N/A   Clear
6:55 AM 36.0 °F 30.3 °F 34.0 °F 93% 30.04 in 10.0 mi SSE 6.9 mph - N/A   Clear
7:55 AM 37.9 °F 32.1 °F 35.1 °F 89% 30.03 in 10.0 mi SSE 8.1 mph - N/A   Clear
8:55 AM 41.0 °F 36.4 °F 35.1 °F 79% 30.03 in 10.0 mi South 6.9 mph - N/A   Clear
9:55 AM 44.1 °F 39.0 °F 35.1 °F 71% 30.02 in 10.0 mi South 9.2 mph - N/A   Clear
10:55 AM 46.0 °F 41.0 °F 35.1 °F 66% 30.00 in 10.0 mi South 10.4 mph - N/A   Partly Cloudy
11:55 AM 48.9 °F - 37.0 °F 64% 29.97 in 10.0 mi SSW 5.8 mph - N/A   Clear
12:55 PM 50.0 °F - 37.0 °F 61% 29.95 in 10.0 mi South 6.9 mph - N/A   Clear
1:55 PM 51.1 °F - 37.9 °F 61% 29.94 in 10.0 mi SSW 8.1 mph - N/A   Clear
2:55 PM 51.1 °F - 39.0 °F 63% 29.93 in 10.0 mi SSW 6.9 mph - N/A   Partly Cloudy
3:55 PM 50.0 °F - 39.0 °F 66% 29.92 in 10.0 mi Calm Calm - N/A   Partly Cloudy
4:55 PM 48.9 °F - 39.0 °F 69% 29.93 in 10.0 mi Calm Calm - N/A   Overcast
5:55 PM 46.0 °F - 39.9 °F 79% 29.96 in 10.0 mi Calm Calm - N/A   Overcast
6:55 PM 45.0 °F - 43.0 °F 93% 29.96 in 10.0 mi Calm Calm - 0.01 in Rain Light Rain
7:55 PM 44.1 °F 42.5 °F 43.0 °F 96% 29.96 in 10.0 mi SSW 3.5 mph - 0.01 in   Overcast
8:55 PM 45.0 °F 43.5 °F 43.0 °F 93% 29.95 in 9.0 mi ENE 3.5 mph - 0.00 in Rain Light Rain
9:42 PM 44.6 °F - 42.8 °F 93% 29.95 in 9.0 mi Calm Calm - 0.00 in   Overcast
9:55 PM 44.1 °F - 43.0 °F 96% 29.97 in 8.0 mi Calm Calm - 0.00 in   Overcast
10:55 PM 44.1 °F 40.8 °F 43.0 °F 96% 29.97 in 7.0 mi North 5.8 mph - N/A   Overcast
11:50 PM 44.6 °F 39.7 °F 42.8 °F 93% 29.94 in 8.0 mi NNE 9.2 mph - N/A   Overcast
11:55 PM 44.1 °F 39.0 °F 42.1 °F 93% 29.96 in 8.0 mi NNE 9.2 mph - N/A   Overcast